Dewpoint
18 18 17 18 17 18 21 21 19 21 23 28 33 35 39 46 52 52 54 55 55 55 56 57 59 58 57 58 58 60 60 61 61 59 57 59 59 58 55 52 53 53 53 52
17 17 19 18 20 22 20 19 20 22 24 29 34 34 42 45 50 52 53 53 54 55 55 56 56 57 57 57 58 59 59 60 61 60 61 60 59 54 52 53 54 53 53 53
19 17 20 23 22 23 24 24 24 22 26 26 28 30 33 38 48 51 52 53 53 54 54 56 56 55 56 57 58 59 60 61 61 61 59 59 54 53 49 50 51 53 54 52
21 23 22 21 21 22 23 24 24 23 23 19 25 19 32 34 41 46 49 51 52 52 53 54 55 55 56 57 57 59 61 61 61 60 58 56 52 50 51 51 52 53 52 51
21 22 22 22 22 23 23 27 26 25 24 23 24 23 30 34 36 39 44 47 49 51 52 53 54 55 56 56 56 59 61 61 60 58 56 53 53 52 51 50 52 52 50 51
23 24 23 24 26 26 26 24 24 25 23 19 24 24 25 32 35 36 38 40 44 48 51 54 55 56 56 57 57 59 61 61 59 56 56 55 53 51 50 50 49 47 48 48
24 25 25 25 24 27 26 25 16 13 18 16 25 24 26 32 30 32 34 36 39 44 50 53 54 54 55 56 57 58 59 58 55 53 52 51 52 52 51 50 48 49 45 43
22 21 25 26 25 25 25 26 19 16 17 17 26 22 24 30 31 33 33 36 42 47 49 52 53 54 53 55 56 55 54 52 50 49 49 52 53 50 50 49 50 46 43 42
25 25 29 27 26 28 28 26 27 26 27 22 22 26 29 31 30 32 32 37 44 47 50 52 53 54 53 51 53 54 51 48 47 47 51 52 52 51 50 50 49 45 45 44
32 27 30 32 31 29 29 29 27 27 21 19 22 25 21 27 29 31 32 36 43 46 48 49 51 53 51 48 49 48 46 45 46 48 49 49 50 50 50 49 48 46 46 47
34 33 29 30 29 29 29 28 29 30 28 22 20 20 29 29 33 33 34 36 37 41 42 44 48 49 47 45 42 44 43 44 45 48 49 49 49 49 49 48 46 46 47 48
33 33 27 28 31 33 30 28 30 26 26 29 26 23 31 33 34 36 36 36 38 38 37 40 43 47 46 44 43 42 44 43 45 48 48 48 48 47 46 46 46 46 48 48
33 30 26 27 29 32 30 29 30 32 31 29 22 19 31 33 35 36 35 35 36 36 36 39 41 43 43 44 43 42 43 43 46 48 47 47 46 46 45 46 47 48 48 48
37 33 30 24 25 30 28 30 30 32 27 23 24 26 29 32 34 35 36 36 35 36 37 38 40 39 40 42 43 43 44 46 47 47 46 45 45 44 45 46 47 48 48 48
39 33 35 30 31 31 29 27 30 29 30 28 28 28 30 34 34 37 36 36 36 36 37 38 39 40 40 42 43 44 45 47 48 46 45 45 43 44 45 47 48 48 48 48
36 35 34 32 33 34 29 31 32 32 31 30 30 30 35 35 34 34 35 35 35 36 36 36 38 39 40 42 43 43 45 47 47 46 44 42 43 44 46 47 47 48 48 48
35 35 31 29 34 33 29 30 32 31 32 32 29 31 37 35 34 35 36 37 37 38 38 39 40 42 44 44 44 44 46 47 46 45 42 42 43 44 46 47 47 47 47 47
36 36 36 32 34 27 31 36 38 36 37 38 38 37 37 37 39 41 41 38 38 40 41 43 44 46 46 44 45 47 46 46 45 43 42 42 44 45 47 47 47 46 47 47
42 40 37 34 32 33 34 37 39 38 34 40 39 38 38 40 40 42 44 45 44 45 45 45 47 47 46 45 46 46 45 44 42 42 42 43 45 46 47 45 45 45 46 47
43 43 36 37 33 29 33 38 41 38 33 39 43 41 41 41 35 40 45 44 45 47 47 47 48 47 47 47 47 45 43 42 42 42 43 45 47 46 45 44 44 45 46 47
38 39 36 36 34 35 39 40 40 34 35 41 44 45 44 41 43 45 45 46 47 48 48 49 48 47 47 47 46 43 43 41 43 43 45 47 46 45 44 46 45 46 46 48
33 33 34 38 34 27 42 40 37 42 43 45 44 46 46 45 42 44 45 45 45 45 46 48 49 47 47 46 44 43 42 43 43 44 46 47 45 44 46 46 46 47 47 46
30 35 34 38 33 43 45 45 45 45 45 46 44 45 42 41 43 45 43 45 45 43 43 48 49 47 46 45 44 43 43 43 44 46 47 46 45 45 46 45 46 45 47 46
38 45 40 41 41 43 45 46 47 48 45 45 46 44 43 43 45 43 44 45 44 44 44 49 49 47 45 44 44 44 43 44 45 47 46 46 45 46 46 44 45 45 45 46
36 44 41 40 41 44 46 48 47 47 47 47 45 44 44 45 45 44 45 46 47 46 46 50 48 47 45 45 44 44 43 45 46 47 46 44 44 45 45 45 42 44 43 43
37 38 34 29 42 44 45 48 48 44 41 43 43 43 46 46 45 46 47 48 47 46 48 49 47 46 45 45 44 43 45 46 47 46 45 43 44 44 44 45 45 41 40 40
Wind_Speed
5 7 7 3 1 4 6 6 6 4 6 4 4 4 10 5 0 3 7 9 12 11 8 7 6 3 3 4 6 8 8 8 8 6 6 6 7 7 5 3 3 2 3 5
3 5 2 6 7 6 6 4 2 0 6 3 2 6 9 7 2 2 5 8 11 10 10 11 9 5 3 4 6 8 10 11 10 8 4 4 3 3 3 2 2 2 3 5
1 2 4 6 8 7 4 2 1 4 4 9 1 2 5 5 4 2 3 7 8 11 13 14 13 11 6 5 5 7 9 11 9 5 2 3 4 3 3 4 4 3 5 6
1 3 9 8 5 1 2 3 4 3 2 3 5 2 1 7 4 3 1 4 7 10 12 11 9 9 7 7 3 6 9 8 4 2 3 3 5 8 6 7 7 8 7 9
2 6 7 7 2 1 3 7 4 3 5 3 7 3 1 3 3 3 2 4 7 12 10 9 6 6 7 6 7 6 5 3 2 2 2 5 7 6 7 8 8 8 8 9
3 1 2 4 4 3 6 2 4 4 1 2 6 3 0 4 4 4 5 7 10 12 6 7 5 5 7 7 7 5 4 4 3 3 3 4 6 8 10 10 11 12 13 13
3 3 2 2 4 4 5 5 4 2 4 4 4 3 3 7 5 7 7 9 12 4 5 6 5 6 6 5 4 3 3 3 2 3 3 4 5 6 8 10 11 13 15 17
4 4 1 2 1 2 4 5 5 5 6 8 3 2 3 4 5 7 9 13 8 5 6 6 6 4 3 3 1 2 3 2 1 2 3 4 4 6 8 9 10 13 15 14
4 3 0 4 3 1 3 3 2 5 1 3 3 3 8 5 9 10 14 14 7 7 6 6 4 4 2 2 3 4 4 2 2 3 4 4 5 7 10 10 10 13 15 15
6 4 2 3 2 13 1 9 2 2 4 8 3 5 8 7 14 17 18 12 7 8 6 5 4 3 3 2 4 4 4 4 2 3 5 6 7 9 10 11 13 14 16 15
5 2 3 2 3 1 3 2 5 3 1 6 8 9 5 11 10 13 15 7 8 6 6 5 3 2 4 4 5 6 3 3 4 5 5 7 9 10 11 13 14 15 16 15
2 4 4 2 1 1 2 3 2 1 2 1 3 11 2 7 12 12 13 8 5 2 2 3 3 5 6 8 8 5 3 5 5 5 6 9 9 12 14 14 14 15 16 16
9 2 5 3 3 2 2 3 4 5 2 4 6 8 3 9 9 6 7 8 3 4 5 4 5 7 10 10 7 7 6 5 4 4 7 9 12 14 15 14 14 14 16 14
4 4 3 5 2 3 4 2 3 2 2 6 11 16 16 12 9 4 4 4 5 7 5 5 8 10 11 11 9 5 4 4 4 4 8 12 14 15 14 14 15 14 14 13
3 4 2 3 3 2 2 2 4 4 5 6 12 8 12 11 8 6 4 3 4 5 5 9 12 12 13 11 7 6 3 2 2 4 9 13 15 13 13 14 14 15 13 11
2 4 3 3 1 1 2 3 3 3 3 8 8 10 6 6 4 4 4 6 7 7 8 12 14 14 16 12 11 6 3 3 1 6 11 14 13 13 13 14 15 13 12 12
2 7 4 3 1 2 5 4 3 4 5 4 8 4 10 5 6 7 9 8 9 10 12 14 17 18 16 15 9 3 3 4 3 8 12 12 12 13 14 14 12 12 12 12
6 6 2 3 2 5 2 4 4 8 13 8 7 5 2 2 4 10 12 9 9 10 12 15 15 16 14 9 2 5 5 4 4 9 11 11 12 14 14 13 12 13 10 10
3 5 3 3 4 4 5 5 6 7 10 4 6 1 0 3 2 8 12 10 8 9 10 12 11 11 9 4 4 5 5 4 7 10 10 12 13 14 12 13 13 12 11 9
8 8 1 3 5 10 6 2 4 4 10 2 3 2 2 2 6 5 11 12 12 12 11 13 14 10 6 3 5 6 4 6 8 9 10 11 12 10 12 13 12 11 9 7
2 2 4 4 6 6 8 4 4 4 6 3 1 2 1 2 4 3 6 9 10 10 11 13 13 9 4 5 6 6 4 7 6 7 9 10 8 10 12 11 10 10 9 8
2 2 4 2 5 11 1 5 6 1 2 3 2 2 5 6 4 4 6 9 10 13 16 17 15 9 3 5 5 4 6 5 5 7 8 9 9 11 10 10 10 10 9 10
4 5 2 8 4 1 2 3 4 3 2 3 3 4 6 5 4 4 6 9 12 17 19 17 13 4 4 5 4 4 5 5 6 7 8 6 10 10 10 10 11 11 10 8
4 3 3 2 4 7 5 6 7 3 1 5 5 5 4 5 2 3 6 10 14 17 18 16 13 2 5 5 4 4 4 5 6 7 7 7 8 9 10 9 9 8 8 9
1 9 6 5 6 5 6 8 5 4 5 6 4 4 5 3 4 5 8 10 13 17 19 16 11 2 6 6 3 4 4 5 6 7 7 6 5 6 6 9 9 7 5 3
8 7 8 11 7 4 2 6 8 8 7 6 6 4 5 5 5 6 8 9 13 17 18 15 6 5 8 5 3 4 4 5 6 6 6 5 4 4 4 5 7 9 4 3
Wind_Direction
15 76 42 51 72 114 121 94 78 77 21 100 61 0 345 333 191 210 208 216 228 223 201 181 183 172 164 180 197 200 193 186 186 189 217 238 241 233 240 234 249 284 339 346
47 102 18 127 138 108 90 77 39 212 22 117 148 48 15 9 296 260 235 235 238 236 235 227 222 213 183 188 200 201 209 202 211 222 227 268 260 256 287 299 327 318 323 333
156 92 144 138 126 100 74 100 241 307 67 74 319 121 17 6 355 286 247 260 252 245 250 247 236 238 238 231 221 219 221 222 225 242 263 289 260 249 306 340 329 324 323 323
52 350 157 131 93 40 23 336 287 307 251 326 346 268 11 353 19 20 4 247 262 263 256 253 261 262 263 265 256 241 234 232 212 156 277 318 318 315 326 316 316 324 333 327
50 105 114 85 56 231 51 60 59 63 114 145 19 272 75 348 161 162 203 240 245 250 261 283 283 271 269 268 260 263 254 241 237 313 350 321 308 313 314 311 318 321 316 318
106 22 51 96 92 75 127 88 67 80 116 32 356 308 148 191 204 197 227 243 245 252 268 271 274 267 270 270 266 266 253 259 325 334 334 312 311 313 318 327 319 318 318 322
73 46 79 132 91 68 60 28 0 35 22 357 356 286 342 238 261 243 242 236 243 281 264 262 264 255 265 285 286 261 248 269 297 313 312 308 307 318 315 314 315 318 318 319
140 161 254 24 27 122 62 46 35 356 336 332 317 341 8 269 265 254 260 255 273 273 262 265 268 279 295 313 267 213 212 241 265 263 296 314 315 306 303 308 311 311 315 312
147 183 42 42 105 325 153 64 94 112 106 292 341 262 267 248 249 248 246 243 250 267 264 263 263 258 240 295 278 240 222 231 244 304 304 308 309 310 309 306 307 306 307 307
179 141 52 136 98 49 221 134 340 34 319 325 304 281 300 282 246 237 243 243 250 255 252 264 272 264 242 221 201 200 205 221 254 314 321 321 321 313 304 300 299 305 305 304
143 144 160 181 30 97 142 145 69 100 353 306 306 307 257 283 296 284 267 247 245 256 253 263 270 245 233 228 232 228 237 298 308 315 321 320 317 309 302 299 303 307 307 309
137 119 140 119 100 256 88 114 128 7 305 220 292 288 359 303 297 284 279 234 231 254 297 285 264 241 247 244 242 248 270 274 309 332 329 313 311 311 307 304 306 313 314 315
176 70 124 129 158 120 108 104 104 105 110 247 290 289 325 312 305 284 239 230 208 251 277 262 241 244 248 249 250 248 257 296 335 329 313 312 315 317 313 309 313 314 319 312
109 103 173 219 141 122 158 138 141 195 264 302 270 297 315 328 302 317 330 332 283 276 272 259 249 254 259 261 256 270 291 340 343 332 313 317 320 316 315 316 315 315 317 310
75 117 109 102 99 149 167 183 187 246 279 271 314 292 299 345 336 333 318 264 263 280 267 250 257 268 277 287 294 269 290 317 23 322 320 317 316 319 321 321 321 320 317 307
29 134 135 152 124 11 248 267 261 250 257 265 281 288 3 326 317 316 290 289 300 285 271 264 274 307 318 307 278 269 236 107 12 332 319 316 323 326 327 325 330 323 316 314
90 140 160 206 4 1 279 234 209 273 253 260 279 323 324 331 18 14 349 324 308 330 332 331 323 312 307 296 285 264 122 99 20 322 322 326 330 328 328 333 326 321 321 323
140 127 108 157 142 259 319 250 266 261 279 254 264 285 315 3 10 40 22 355 348 342 342 340 339 332 326 332 38 103 103 71 351 327 334 337 335 332 336 332 326 319 319 328
79 131 120 200 224 312 258 220 206 208 286 231 244 210 222 322 298 64 26 23 18 354 346 340 336 324 344 19 131 116 78 27 343 345 346 345 339 340 339 339 336 338 334 336
70 81 177 165 237 273 284 181 153 152 286 188 217 233 313 345 317 28 6 10 6 7 2 344 331 339 359 64 104 91 53 1 356 360 349 349 353 355 348 347 336 333 330 339
125 75 236 203 252 276 251 173 148 233 291 162 184 346 57 11 46 12 7 20 11 357 341 332 338 351 31 124 125 90 32 15 11 356 356 2 14 2 356 351 353 342 349 61
180 190 237 166 273 287 84 135 211 300 169 155 125 102 102 107 94 49 23 8 358 356 350 347 350 3 78 124 110 69 37 29 16 8 10 27 17 14 11 7 7 20 42 61
206 210 250 203 254 266 249 253 298 233 236 178 143 122 107 117 79 41 7 360 2 0 351 353 353 7 122 127 96 53 46 33 21 17 28 38 34 28 27 22 34 40 45 58
222 151 211 209 227 259 260 247 248 230 276 116 116 120 108 111 98 28 359 5 3 357 348 350 346 356 133 133 96 60 47 33 24 30 48 43 40 33 28 29 40 50 47 57
135 164 195 242 268 269 246 233 218 147 128 134 136 118 124 117 52 3 356 358 355 347 349 349 350 59 133 132 101 56 51 27 38 57 58 53 41 32 22 54 32 31 38 28
193 190 211 257 207 214 196 174 156 150 165 156 135 124 80 60 25 352 342 357 351 344 348 347 8 124 133 130 104 65 56 39 42 68 59 51 47 37 13 51 74 53 36 33